Simultaneous Nadir Overpasses (SNOs) Predictions

Prediction of SNOs between LANDSAT-8 and METOP-A Satellite Orbit:

Table of predicted SNOs for the next 14.0 days since TLE Epoch: 6/5/2021
Index Date (LANDSAT-8) Time (LANDSAT-8) Lat,Lon (LANDSAT-8) SZA (LANDSAT-8 ) Date (METOP-A) Time (METOP-A) Lat,Lon (METOP-A) SZA (METOP-A ) Distance(km) Time Diff (sec)
1 06/05/2021 17:18:06 81.38, -34.95 61.40 06/05/2021 17:17:38 81.38, -35.15 61.36 3.24 28
2 06/05/2021 18:07:33 -81.38, 132.57 118.63 06/05/2021 18:08:18 -81.37, 132.49 118.62 1.49 45
3 06/08/2021 12:52:23 81.37, 31.25 61.08 06/08/2021 12:52:00 81.38, 31.13 61.07 2.33 23
4 06/08/2021 13:41:50 -81.37,-161.20 118.94 06/08/2021 13:42:40 -81.37,-161.21 118.91 0.66 50
5 06/11/2021 08:26:39 81.38, 97.80 60.87 06/11/2021 08:26:21 81.37, 97.78 60.86 0.53 18
6 06/11/2021 09:16:06 -81.37, -94.62 119.15 06/11/2021 09:17:01 -81.36, -94.54 119.12 1.86 55
7 06/14/2021 04:00:55 81.36, 163.94 60.65 06/14/2021 04:00:42 81.38, 164.03 60.66 2.10 13
8 06/14/2021 04:50:22 -81.36, -28.46 119.36 06/14/2021 04:51:22 -81.36, -28.28 119.31 2.92 60
9 06/16/2021 23:35:11 81.37,-129.56 60.53 06/16/2021 23:35:03 81.37,-129.36 60.55 3.37 8



Historial Predications of SNOs between LANDSAT-8 and METOP-A
